Location: Shenandoah County Park
(38.9356°N, 78.4524°W)
Time: 06:22:54
(UTC-05:00)

Explorer 11/Cluster Stage 4 - All Passes

Search period start: 23 February 2024 00:00
Search period end: 04 March 2024 00:00
Orbit: 465 x 1224 km, 28.8° (Epoch: 22 February)

Date Brightness Start Highest point End Pass type
(mag) Time Alt. Az. Time Alt. Az. Time Alt. Az.
23 Feb - 01:44:38 10° SW 01:50:48 26° SSE 01:56:22 10° ESE night (unlit)
23 Feb - 03:32:22 10° WSW 03:38:51 34° S 03:44:20 10° ESE visible
23 Feb - 05:21:13 10° WSW 05:26:37 27° SSW 05:31:11 10° SE visible
23 Feb - 07:12:04 10° SW 07:13:48 11° SSW 07:15:26 10° S daylight
23 Feb - 23:42:25 10° S 23:46:10 14° SSE 23:49:51 10° SE night (unlit)
24 Feb - 01:27:38 10° SW 01:34:06 28° SSE 01:40:01 10° ESE night (unlit)
24 Feb - 03:15:29 10° WSW 03:22:12 35° S 03:27:58 10° ESE visible
24 Feb - 05:04:24 10° WSW 05:10:02 27° SSW 05:14:48 10° SE visible
24 Feb - 06:55:28 10° SW 06:57:14 11° SSW 06:58:55 10° SSW daylight
24 Feb - 23:25:06 10° S 23:29:25 15° SSE 23:33:40 10° ESE night (unlit)
25 Feb - 01:10:40 10° SW 01:17:22 30° SSE 01:23:35 10° ESE night (unlit)
25 Feb - 02:58:36 10° WSW 03:05:31 37° S 03:11:33 10° ESE visible
25 Feb - 04:47:34 10° WSW 04:53:24 28° SSW 04:58:24 10° SE visible
25 Feb - 06:38:53 10° SW 06:40:39 11° SSW 06:42:18 10° SSW daylight
25 Feb - 23:07:56 10° S 23:12:38 17° SSE 23:17:20 10° ESE night (unlit)
26 Feb - 00:53:44 10° SW 01:00:36 32° SSE 01:07:05 10° ESE night (unlit)
26 Feb - 02:41:43 10° WSW 02:48:48 38° S 02:55:05 10° ESE visible
26 Feb - 04:30:44 10° WSW 04:36:45 28° SSW 04:41:56 10° SE visible
26 Feb - 06:22:19 10° SW 06:24:00 11° SSW 06:25:37 10° SSW visible
26 Feb - 22:50:51 10° SSW 22:55:51 18° SSE 23:00:54 10° ESE night (unlit)
27 Feb - 00:36:51 10° SW 00:43:49 33° SSE 00:50:32 10° ESE night (unlit)
27 Feb - 02:24:51 10° WSW 02:32:03 38° S 02:38:34 10° ESE visible
27 Feb - 04:13:54 10° WSW 04:20:02 28° SSW 04:25:26 10° SE visible
27 Feb - 06:05:48 10° SW 06:07:20 11° SSW 06:08:49 10° SSW visible
27 Feb - 22:33:51 10° SSW 22:39:02 19° SSE 22:44:21 10° ESE night (unlit)
28 Feb - 00:19:59 10° SW 00:27:01 34° SSE 00:33:54 10° ESE night (unlit)
28 Feb - 02:07:59 10° WSW 02:15:17 39° S 02:21:59 10° ESE visible
28 Feb - 03:57:04 10° WSW 04:03:18 27° SSW 04:08:51 10° SE visible
28 Feb - 05:49:23 10° SW 05:50:38 11° SSW 05:51:52 10° SSW visible
28 Feb - 22:16:55 10° SSW 22:22:13 20° SSE 22:27:44 10° ESE night (unlit)
29 Feb - 00:03:10 10° SW 00:10:12 35° S 00:17:14 10° ESE night (unlit)
29 Feb - 01:51:10 10° WSW 01:58:29 39° S 02:05:22 10° ESE night (unlit)
29 Feb - 03:40:14 10° WSW 03:46:32 27° SSW 03:52:13 10° SE visible
29 Feb - 05:33:15 10° SW 05:33:54 10° SW 05:34:32 10° SSW visible
29 Feb - 22:00:03 10° SSW 22:05:23 21° SSE 22:11:03 10° ESE night (unlit)
29 Feb - 23:46:22 10° SW 23:53:21 36° S 00:00:31 10° ESE night (unlit)
01 Mar - 01:34:21 10° WSW 01:41:39 39° S 01:48:40 10° ESE night (unlit)
01 Mar - 03:23:25 10° WSW 03:29:44 26° SSW 03:35:31 10° SSE visible
01 Mar - 21:43:14 10° SSW 21:48:34 22° SSE 21:54:18 10° ESE night (unlit)
01 Mar - 23:29:37 10° SW 23:36:31 37° S 23:43:44 10° ESE night (unlit)
02 Mar - 01:17:33 10° WSW 01:24:49 39° S 01:31:56 10° ESE night (unlit)
02 Mar - 03:06:38 10° WSW 03:12:54 25° SSW 03:18:45 10° SSE visible
02 Mar - 21:26:28 10° SSW 21:31:44 23° SSE 21:37:30 10° ESE visible
02 Mar - 23:12:54 10° SW 23:19:40 37° S 23:26:54 10° ESE night (unlit)
03 Mar - 01:00:48 10° WSW 01:07:57 38° S 01:15:08 10° ESE night (unlit)
03 Mar - 02:49:52 10° WSW 02:56:02 24° SSW 03:01:55 10° SSE visible
03 Mar - 21:09:46 10° SSW 21:14:55 23° SSE 21:20:40 10° ESE visible
03 Mar - 22:56:13 10° WSW 23:02:49 37° S 23:10:01 10° ESE night (unlit)
